• In Deutschland
  • Länderverzeichnis
  • Für 7 Tage
  • Wassertemperatur
  • Satellitenkarten
  • Wetterkarte
  • Widgets
  • user-avatar
    Anmelden

    Stündliche Wetter Sherpur

    Heute, 18 Februar, Sonntag

    Zeit Temperatur Niederschläge Wind Luftdruck Luftfeuchtigkeit
    00:00 +1°C° 0 mm 4 m/S 607 mmHg 31%
    01:00 0°C° 0 mm 4 m/S 607 mmHg 31%
    02:00 +1°C° 0 mm 3 m/S 607 mmHg 31%
    03:00 +1°C° 0 mm 3 m/S 607 mmHg 31%
    04:00 +1°C° 0 mm 3 m/S 607 mmHg 31%
    05:00 +1°C° 0 mm 3 m/S 606 mmHg 31%
    06:00 +1°C° 0 mm 3 m/S 607 mmHg 31%
    07:00 +1°C° 0 mm 3 m/S 607 mmHg 31%
    08:00 +2°C° 0 mm 3 m/S 607 mmHg 31%
    09:00 +4°C° 0 mm 3 m/S 607 mmHg 30%
    10:00 +7°C° 0 mm 2 m/S 608 mmHg 29%
    11:00 +9°C° 0 mm 2 m/S 608 mmHg 28%
    12:00 +10°C° 0 mm 2 m/S 608 mmHg 29%
    13:00 +10°C° 0 mm 2 m/S 608 mmHg 30%
    14:00 +12°C° 0 mm 2 m/S 608 mmHg 31%
    15:00 +12°C° 0 mm 2 m/S 608 mmHg 33%
    16:00 +10°C° 0 mm 2 m/S 608 mmHg 35%
    17:00 +10°C° 0 mm 2 m/S 607 mmHg 38%
    18:00 +9°C° 0 mm 2 m/S 607 mmHg 40%
    19:00 +7°C° 0 mm 2 m/S 607 mmHg 43%
    20:00 +5°C° 0 mm 3 m/S 607 mmHg 46%
    21:00 +6°C° 0 mm 2 m/S 607 mmHg 47%
    22:00 +5°C° 0 mm 2 m/S 607 mmHg 48%
    23:00 +5°C° 0 mm 2 m/S 607 mmHg 49%

    Morgen, 19 Februar, Montag

    Zeit Temperatur Niederschläge Wind Luftdruck Luftfeuchtigkeit
    00:00 +4°C° 0 mm 2 m/S 607 mmHg 49%
    01:00 +4°C° 0 mm 2 m/S 607 mmHg 50%
    02:00 +4°C° 0 mm 2 m/S 607 mmHg 50%
    03:00 +4°C° 0 mm 2 m/S 606 mmHg 51%
    04:00 +4°C° 0 mm 2 m/S 606 mmHg 52%
    05:00 +3°C° 0 mm 2 m/S 606 mmHg 52%
    06:00 +5°C° 0 mm 1 m/S 606 mmHg 52%
    07:00 +5°C° 0 mm 1 m/S 607 mmHg 51%
    08:00 +6°C° 0 mm 1 m/S 607 mmHg 50%
    09:00 +7°C° 0 mm 1 m/S 607 mmHg 48%
    10:00 +9°C° 0 mm 1 m/S 608 mmHg 47%
    11:00 +9°C° 0 mm 0 m/S 609 mmHg 45%
    12:00 +11°C° 0 mm 1 m/S 608 mmHg 45%
    13:00 +11°C° 0 mm 1 m/S 608 mmHg 45%
    14:00 +12°C° 0 mm 1 m/S 608 mmHg 44%
    15:00 +12°C° 0 mm 1 m/S 608 mmHg 44%
    16:00 +11°C° 0 mm 1 m/S 608 mmHg 44%
    17:00 +11°C° 0 mm 1 m/S 608 mmHg 44%
    18:00 +10°C° 0 mm 1 m/S 608 mmHg 47%
    19:00 +9°C° 0 mm 1 m/S 608 mmHg 49%
    20:00 +8°C° 0 mm 1 m/S 608 mmHg 51%
    21:00 +7°C° 0 mm 1 m/S 608 mmHg 52%
    22:00 +7°C° 0 mm 1 m/S 607 mmHg 53%
    23:00 +6°C° 0 mm 1 m/S 607 mmHg 54%

    übermorgen, 20 Februar, Dienstag

    Zeit Temperatur Niederschläge Wind Luftdruck Luftfeuchtigkeit
    00:00 +6°C° 0 mm 1 m/S 607 mmHg 54%
    01:00 +6°C° 0 mm 1 m/S 607 mmHg 55%
    02:00 +6°C° 0 mm 1 m/S 607 mmHg 55%
    03:00 +6°C° 0 mm 1 m/S 606 mmHg 56%
    04:00 +5°C° 0 mm 1 m/S 606 mmHg 57%
    05:00 +5°C° 0 mm 1 m/S 605 mmHg 57%
    06:00 +5°C° 0 mm 1 m/S 606 mmHg 57%
    07:00 +6°C° 0 mm 1 m/S 606 mmHg 56%
    08:00 +6°C° 0 mm 1 m/S 607 mmHg 56%
    09:00 +7°C° 0,1 mm 1 m/S 607 mmHg 55%
    10:00 +7°C° 0,1 mm 2 m/S 607 mmHg 54%
    11:00 +8°C° 0,1 mm 2 m/S 607 mmHg 53%
    12:00 +8°C° 0,3 mm 2 m/S 607 mmHg 56%
    13:00 +7°C° 0,3 mm 2 m/S 607 mmHg 58%
    14:00 +7°C° 0,3 mm 2 m/S 606 mmHg 61%
    15:00 +7°C° 0,4 mm 2 m/S 606 mmHg 63%
    16:00 +7°C° 0,4 mm 2 m/S 606 mmHg 65%
    17:00 +6°C° 0,4 mm 2 m/S 605 mmHg 66%
    18:00 +6°C° 0,3 mm 2 m/S 606 mmHg 69%
    19:00 +5°C° 0,3 mm 2 m/S 606 mmHg 71%
    20:00 +5°C° 0,3 mm 2 m/S 606 mmHg 73%
    21:00 +4°C° 0,3 mm 2 m/S 606 mmHg 75%
    22:00 +4°C° 0,3 mm 2 m/S 606 mmHg 77%
    23:00 +4°C° 0,3 mm 2 m/S 606 mmHg 79%

    21 Februar, Mittwoch

    Zeit Temperatur Niederschläge Wind Luftdruck Luftfeuchtigkeit
    00:00 +3°C° 0 mm 2 m/S 606 mmHg 79%
    01:00 +3°C° 0 mm 2 m/S 606 mmHg 78%
    02:00 +3°C° 0 mm 2 m/S 606 mmHg 78%
    03:00 +3°C° 0 mm 2 m/S 606 mmHg 77%
    04:00 +4°C° 0 mm 1 m/S 606 mmHg 76%
    05:00 +3°C° 0 mm 1 m/S 605 mmHg 75%
    06:00 +4°C° 0 mm 1 m/S 606 mmHg 73%
    07:00 +4°C° 0 mm 1 m/S 607 mmHg 71%
    08:00 +4°C° 0 mm 1 m/S 607 mmHg 70%
    09:00 +5°C° 0 mm 1 m/S 607 mmHg 65%
    10:00 +6°C° 0 mm 1 m/S 608 mmHg 60%
    11:00 +7°C° 0 mm 1 m/S 608 mmHg 55%
    12:00 +8°C° 0 mm 1 m/S 608 mmHg 53%
    13:00 +9°C° 0 mm 1 m/S 608 mmHg 51%
    14:00 +10°C° 0 mm 1 m/S 607 mmHg 48%
    15:00 +10°C° 0 mm 1 m/S 607 mmHg 47%
    16:00 +10°C° 0 mm 1 m/S 607 mmHg 46%
    17:00 +10°C° 0 mm 1 m/S 607 mmHg 45%
    18:00 +8°C° 0 mm 1 m/S 607 mmHg 47%
    19:00 +7°C° 0 mm 1 m/S 607 mmHg 50%
    20:00 +6°C° 0 mm 1 m/S 608 mmHg 52%
    21:00 +6°C° 0 mm 1 m/S 607 mmHg 52%
    22:00 +5°C° 0 mm 1 m/S 607 mmHg 51%
    23:00 +5°C° 0 mm 1 m/S 607 mmHg 51%

    22 Februar, Donnerstag

    Zeit Temperatur Niederschläge Wind Luftdruck Luftfeuchtigkeit
    00:00 +5°C° 0 mm 1 m/S 607 mmHg 50%
    01:00 +4°C° 0 mm 1 m/S 607 mmHg 50%
    02:00 +4°C° 0 mm 1 m/S 606 mmHg 49%
    03:00 +4°C° 0 mm 1 m/S 606 mmHg 48%
    04:00 +4°C° 0 mm 1 m/S 606 mmHg 47%
    05:00 +3°C° 0 mm 1 m/S 606 mmHg 47%
    06:00 +4°C° 0 mm 1 m/S 606 mmHg 45%
    07:00 +4°C° 0 mm 1 m/S 606 mmHg 44%
    08:00 +4°C° 0 mm 1 m/S 606 mmHg 42%
    09:00 +6°C° 0 mm 1 m/S 607 mmHg 39%
    10:00 +7°C° 0 mm 1 m/S 607 mmHg 36%
    11:00 +9°C° 0 mm 1 m/S 607 mmHg 33%
    12:00 +9°C° 0 mm 1 m/S 607 mmHg 33%
    13:00 +10°C° 0 mm 1 m/S 607 mmHg 33%
    14:00 +10°C° 0 mm 1 m/S 607 mmHg 33%
    15:00 +10°C° 0 mm 1 m/S 606 mmHg 33%
    16:00 +10°C° 0 mm 1 m/S 606 mmHg 34%
    17:00 +10°C° 0 mm 1 m/S 606 mmHg 34%
    18:00 +9°C° 0 mm 1 m/S 606 mmHg 36%
    19:00 +9°C° 0 mm 1 m/S 607 mmHg 38%
    20:00 +8°C° 0 mm 1 m/S 607 mmHg 40%
    21:00 +7°C° 0 mm 1 m/S 607 mmHg 41%
    22:00 +7°C° 0 mm 1 m/S 607 mmHg 42%
    23:00 +5°C° 0 mm 2 m/S 607 mmHg 43%

    23 Februar, Freitag

    Zeit Temperatur Niederschläge Wind Luftdruck Luftfeuchtigkeit
    00:00 +6°C° 0 mm 1 m/S 606 mmHg 45%
    01:00 +5°C° 0 mm 1 m/S 606 mmHg 47%
    02:00 +4°C° 0 mm 1 m/S 606 mmHg 49%
    03:00 +4°C° 0 mm 1 m/S 606 mmHg 50%
    04:00 +3°C° 0 mm 1 m/S 605 mmHg 51%
    05:00 +3°C° 0 mm 1 m/S 605 mmHg 52%
    06:00 +3°C° 0 mm 1 m/S 606 mmHg 51%
    07:00 +4°C° 0 mm 1 m/S 606 mmHg 51%
    08:00 +4°C° 0 mm 1 m/S 607 mmHg 50%
    09:00 +5°C° 0 mm 1 m/S 607 mmHg 47%
    10:00 +7°C° 0 mm 1 m/S 607 mmHg 45%
    11:00 +8°C° 0 mm 1 m/S 608 mmHg 42%
    12:00 +9°C° 0 mm 1 m/S 608 mmHg 42%
    13:00 +9°C° 0 mm 1 m/S 607 mmHg 41%
    14:00 +10°C° 0 mm 1 m/S 607 mmHg 41%
    15:00 +9°C° 0 mm 2 m/S 607 mmHg 42%
    16:00 +9°C° 0 mm 2 m/S 607 mmHg 43%
    17:00 +9°C° 0 mm 2 m/S 607 mmHg 43%
    18:00 +8°C° 0 mm 2 m/S 607 mmHg 45%
    19:00 +7°C° 0 mm 2 m/S 607 mmHg 47%
    20:00 +7°C° 0 mm 1 m/S 607 mmHg 48%
    21:00 +7°C° 0 mm 1 m/S 607 mmHg 50%
    22:00 +6°C° 0 mm 2 m/S 607 mmHg 51%
    23:00 +5°C° 0 mm 2 m/S 607 mmHg 52%
    Mehr zeigen